Satellite: LIBERT
Catalog number: 31129
Epoch time:      08038.72443457
Element set:     734
Inclination:      098.0567 deg
RA of node:       107.6171 deg
Eccentricity:    0.0102590
Arg of perigee:   018.8114 deg
Mean anomaly:     341.6788 deg
Mean motion:   14.52001804 rev/day
Decay rate:       3.38e-06 rev/day^2
Epoch rev:            4298
Checksum:              291

/EX
SB KEPS @ AMSAT  $ORB08038.W
Orbital Elements  08038.WEATHER

HR AMSAT ORBITAL ELEMENTS FOR WEATHER SATELLITES
FROM WA5QGD FORT WORTH,TX February 7, 2008
Send Subscribe/unsubscribe to KEPS at 
http://www.amsat.org/mailman/listinfo/keps
BID: ORB08038.W
TO ALL RADIO AMATEURS BT

Satellite: NOAA-10
Catalog number: 16969
Epoch time:      08037.64821848
Element set:    0996
Inclination:      098.7334 deg
RA of node:       059.8122 deg
Eccentricity:    0.0011923
Arg of perigee:   201.9281 deg
Mean anomaly:     158.1393 deg
Mean motion:   14.27350098 rev/day
Decay rate:       1.03e-06 rev/day^2
Epoch rev:           11267
Checksum:              315

Satellite: NOAA-11
Catalog number: 19531
Epoch time:      08038.26961732
Element set:      30
Inclination:      098.8003 deg
RA of node:       129.4216 deg
Eccentricity:    0.0012304
Arg of perigee:   081.5703 deg
Mean anomaly:     278.6844 deg
Mean motion:   14.14863836 rev/day
Decay rate:      -2.05e-06 rev/day^2
Epoch rev:           99939
Checksum:              306

Satellite: NOAA-12
Catalog number: 21263
Epoch time:      08038.43939721
Element set:     536
Inclination:      098.7645 deg
RA of node:       040.4158 deg
Eccentricity:    0.0012997
Arg of perigee:   142.2136 deg
Mean anomaly:     217.9965 deg
Mean motion:   14.25515674 rev/day
Decay rate:        3.6e-07 rev/day^2
Epoch rev:           86976
Checksum:              331

Satellite: MET-3/5
Catalog number: 21655
Epoch time:      08037.91809870
Element set:    0420
Inclination:      082.5544 deg
RA of node:       197.0993 deg
Eccentricity:    0.0013100
Arg of perigee:   347.1001 deg
Mean anomaly:     012.9784 deg
Mean motion:   13.17014155 rev/day
Decay rate:        5.1e-07 rev/day^2
Epoch rev:           79230
Checksum:              277

Satellite: MET-2/21
Catalog number: 22782
Epoch time:      08037.59689522
Element set:    0057
Inclination:      082.5442 deg
RA of node:       215.9437 deg
Eccentricity:    0.0021331
Arg of perigee:   301.1882 deg
Mean anomaly:     058.7191 deg
Mean motion:   13.83625436 rev/day
Decay rate:        3.7e-07 rev/day^2
Epoch rev:           72893
Checksum:              313

Satellite: OKEAN-4
Catalog number: 23317
Epoch time:      08038.79958393
Element set:     500
Inclination:      082.5361 deg
RA of node:       076.7342 deg
Eccentricity:    0.0021755
Arg of perigee:   192.1637 deg
Mean anomaly:     167.9081 deg
Mean motion:   14.82575868 rev/day
Decay rate:       1.27e-06 rev/day^2
Epoch rev:           71896
Checksum:              337

Satellite: NOAA-14
Catalog number: 23455
Epoch time:      08037.90867394
Element set:    0008
Inclination:      098.9621 deg
RA of node:       110.0076 deg
Eccentricity:    0.0009905
Arg of perigee:   151.7271 deg
Mean anomaly:     208.4441 deg
Mean motion:   14.13732888 rev/day
Decay rate:      -1.53e-06 rev/day^2
Epoch rev:           67580
Checksum:              307

Satellite: SICH-1
Catalog number: 23657
Epoch time:      08038.80006187
Element set:     299
Inclination:      082.5241 deg
RA of node:       217.6728 deg
Eccentricity:    0.0023646
Arg of perigee:   184.8329 deg
Mean anomaly:     175.2646 deg
Mean motion:   14.81549574 rev/day
Decay rate:       1.64e-06 rev/day^2
Epoch rev:           67091
Checksum:              327

Satellite: NOAA-15
Catalog number: 25338
Epoch time:      08038.44809281
Element set:     343
Inclination:      098.5474 deg
RA of node:       033.6801 deg
Eccentricity:    0.0011521
Arg of perigee:   065.7791 deg
Mean anomaly:     294.4610 deg
Mean motion:   14.24685416 rev/day
Decay rate:        7.1e-07 rev/day^2
Epoch rev:           50618
Checksum:              301

Satellite: RESURS
Catalog number: 25394
Epoch time:      08037.72817675
Element set:     850
Inclination:      098.4056 deg
RA of node:       087.5582 deg
Eccentricity:    0.0000807
Arg of perigee:   195.1975 deg
Mean anomaly:     164.9180 deg
Mean motion:   14.24152760 rev/day
Decay rate:       -3.3e-07 rev/day^2
Epoch rev:           49773
Checksum:              324

Satellite: FENGYUN1
Catalog number: 25730
Epoch time:      08038.91497175
Element set:     334
Inclination:      098.7133 deg
RA of node:       019.1556 deg
Eccentricity:    0.0021087
Arg of perigee:   175.8244 deg
Mean anomaly:     184.3105 deg
Mean motion:   14.07684822 rev/day
Decay rate:       6.71e-06 rev/day^2
Epoch rev:           45063
Checksum:              302

Satellite: OKEAN-0
Catalog number: 25860
Epoch time:      08037.58207862
Element set:     282
Inclination:      097.7421 deg
RA of node:       034.0102 deg
Eccentricity:    0.0001386
Arg of perigee:   039.9566 deg
Mean anomaly:     320.1747 deg
Mean motion:   14.73500961 rev/day
Decay rate:        7.4e-07 rev/day^2
Epoch rev:           46001
Checksum:              278

Satellite: NOAA-16
Catalog number: 26536
Epoch time:      08038.44250907
Element set:     795
Inclination:      099.1452 deg
RA of node:       024.8203 deg
Eccentricity:    0.0009944
Arg of perigee:   229.9452 deg
Mean anomaly:     130.0870 deg
Mean motion:   14.12469035 rev/day
Decay rate:       2.23e-06 rev/day^2
Epoch rev:           38031
Checksum:              294

Satellite: NOAA-17
Catalog number: 27453
Epoch time:      08037.86499517
Element set:    0793
Inclination:      098.5525 deg
RA of node:       106.2082 deg
Eccentricity:    0.0012707
Arg of perigee:   128.8548 deg
Mean anomaly:     231.3765 deg
Mean motion:   14.23947208 rev/day
Decay rate:       1.50e-06 rev/day^2
Epoch rev:           29211
Checksum:              319

Satellite: NOAA-18
Catalog number: 28654
Epoch time:      08037.88138072
Element set:    0304
Inclination:      098.8550 deg
RA of node:       340.5152 deg
Eccentricity:    0.0014012
Arg of perigee:   328.3744 deg
Mean anomaly:     031.6567 deg
Mean motion:   14.11136178 rev/day
Decay rate:       2.70e-06 rev/day^2
Epoch rev:           13995
Checksum:              297

/EX
SB KEPS @ AMSAT  $ORB08038.M
Orbital Elements  08038.MISC

HR AMSAT ORBITAL ELEMENTS FOR MANNED AND MISCELLANEOUS SATELLITES
FROM WA5QGD FORT WORTH,TX February 7, 2008
Send Subscribe/unsubscribe to KEPS at 
http://www.amsat.org/mailman/listinfo/keps
BID: ORB08038.M
TO ALL RADIO AMATEURS BT

Satellite: HUBBLE
Catalog number: 20580
Epoch time:      08038.56588070
Element set:      67
Inclination:      028.4679 deg
RA of node:       095.1359 deg
Eccentricity:    0.0003730
Arg of perigee:   083.7992 deg
Mean anomaly:     276.3023 deg
Mean motion:   15.00334450 rev/day
Decay rate:       3.61e-06 rev/day^2
Epoch rev:           77534
Checksum:              298

Satellite: UARS
Catalog number: 21701
Epoch time:      08037.95542101
Element set:    0318
Inclination:      056.9765 deg
RA of node:       013.4929 deg
Eccentricity:    0.0080775
Arg of perigee:   287.7450 deg
Mean anomaly:     071.4749 deg
Mean motion:   15.50495868 rev/day
Decay rate:      6.118e-05 rev/day^2
Epoch rev:           90213
Checksum:              316

Satellite: PO-34
Catalog number: 25520
Epoch time:      08037.96357392
Element set:    0926
Inclination:      028.4609 deg
RA of node:       337.2694 deg
Eccentricity:    0.0005236
Arg of perigee:   290.8859 deg
Mean anomaly:     069.1174 deg
Mean motion:   15.17128291 rev/day
Decay rate:       5.53e-06 rev/day^2
Epoch rev:           51321
Checksum:              320

Satellite: ISS
Catalog number: 25544
Epoch time:      08038.91675674
Element set:     879
Inclination:      051.6408 deg
RA of node:       328.0241 deg
Eccentricity:    0.0005540
Arg of perigee:   021.7995 deg
Mean anomaly:     022.6476 deg
Mean motion:   15.78101560 rev/day
Decay rate:     2.4914e-04 rev/day^2
Epoch rev:           52797
Checksum:              317

Satellite: OO-38
Catalog number: 26063
Epoch time:      08037.58871361
Element set:    0131
Inclination:      100.2097 deg
RA of node:       088.3475 deg
Eccentricity:    0.0036646
Arg of perigee:   219.9765 deg
Mean anomaly:     139.8720 deg
Mean motion:   14.35826536 rev/day
Decay rate:       -3.7e-07 rev/day^2
Epoch rev:           42068
Checksum:              323

Satellite: UWE-1
Catalog number: 28892
Epoch time:      08037.73831328
Element set:    0969
Inclination:      098.1115 deg
RA of node:       294.4147 deg
Eccentricity:    0.0018356
Arg of perigee:   098.5096 deg
Mean anomaly:     261.8228 deg
Mean motion:   14.59589790 rev/day
Decay rate:       1.11e-06 rev/day^2
Epoch rev:           12142
Checksum:              332

Satellite: CO-58
Catalog number: 28895
Epoch time:      08037.64138962
Element set:    0943
Inclination:      098.1151 deg
RA of node:       294.6241 deg
Eccentricity:    0.0018918
Arg of perigee:   099.2392 deg
Mean anomaly:     261.0938 deg
Mean motion:   14.59632126 rev/day
Decay rate:        9.7e-07 rev/day^2
Epoch rev:           12129
Checksum:              342

Satellite: NCUBE2
Catalog number: 28897
Epoch time:      08038.71785024
Element set:     472
Inclination:      098.1117 deg
RA of node:       295.6156 deg
Eccentricity:    0.0018275
Arg of perigee:   097.5981 deg
Mean anomaly:     262.7294 deg
Mean motion:   14.59800017 rev/day
Decay rate:        8.6e-07 rev/day^2
Epoch rev:           11373
Checksum:              331

